Regional Weather Roundup
Issued by NWS Newport/Morehead, NC

Current Version | Previous Version | Graphics & Text | Print | Product List | Glossary On
Versions: 1 2 3 4 5 6 7 8 9 10 11 12 13 14 15 16 17 18 19 20 21 22 23 24 25 26 27 28 29 30 31 32 33 34 35 36 37 38 39 40 41 42 43 44 45 46 47 48 49 50
000 ASUS42 KMHX 030625 RWRMHX WEATHER ROUNDUP FOR EASTERN NORTH CAROLINA NATIONAL WEATHER SERVICE NEWPORT/MOREHEAD CITY NC 200 AM EDT WED JUN 03 2015 NOTE: "FAIR" INDICATES FEW OR NO CLOUDS BELOW 12,000 FEET WITH NO SIGNIFICANT WEATHER AND/OR OBSTRUCTIONS TO VISIBILITY NCZ015>017-031-032-045>047-102-103-030700- NORTH COAST CITY SKY/WX TMP DP RH WIND PRES REMARKS EDENTON N/A 67 66 96 NE5 30.02S ELIZABETH CITY CLOUDY 68 66 93 N9 30.02F FOG KITTY HAWK CLOUDY 67 67 99 CALM 30.00F MANTEO CLOUDY 69 68 96 CALM 30.02S $$ NCZ045>047-081-094-103-104-030700- CENTRAL COAST CITY SKY/WX TMP DP RH WIND PRES REMARKS FRISCO CLOUDY 71 67 87 CALM 30.01S SWANQUARTER N/A 70 N/A N/A NE5 29.97S $$ NCZ095-097-098-100-101-030700- SOUTHERN COAST CITY SKY/WX TMP DP RH WIND PRES REMARKS BEAUFORT CLOUDY 74 68 81 E5 29.98F CEDAR ISLAND N/A 73 N/A N/A E3 30.03F JACKSONVILLE NOT AVBL PINEY ISLAND CLOUDY N/A N/A N/A CALM 29.99F WILMINGTON MOCLDY 72 70 93 E3 29.97F $$ NCZ011>013-027>030-043-044-078>080-089-090>093-098-030700- COASTAL PLAIN CITY SKY/WX TMP DP RH WIND PRES REMARKS AHOSKIE CLOUDY 68 67 96 NE7 30.03S CLINTON CLOUDY 68 68 100 CALM 30.00F ELIZABETHTOWN LGT RAIN 69 69 100 W9 29.99S GOLDSBORO CLOUDY 70 69 98 CALM 29.98S GREENVILLE HVY RAIN 70 70 100 CALM 30.03S HAVELOCK CLOUDY 71 68 90 S5 30.00F KENANSVILLE RAIN 69 68 97 CALM 30.00F KINSTON CLOUDY 70 69 96 NW3 30.01S NEW BERN CLOUDY 70 68 93 CALM 30.00F RICHLANDS CLOUDY 68 64 88 CALM 29.98F ROCKY MOUNT CLOUDY 70 69 97 CALM 30.01S WASHINGTON LGT RAIN 69 68 98 NE5 30.01F WHITEVILLE RAIN 67 65 93 W6 29.99R $$ AMZ130-135-150-152-154-156-158-170-250-252-270-ANZ085-086-088-633-658-670-030700- MARINE OBSERVATIONS STATION/POSITION TIME TEMP WIND PRES WAVE SWELL AIR SEA DIR/SP/G HT/PER HT/PER (UTC) (F) (DEG/KT/KT) (MB) (FT/S) (FT/S) CHESAPEAKE LIGHT 0600 65 30/ 18/ 19 1017.0 64 E VA BEACH 0550 72 73 190/ 2/ 4 1015.8 4/ 7 3/ 7 DUCK 0600 63 58 1015.3 2 E DUCK 0611 60 N/A 3/ 7 OREGON INLET 0600 69 74 1016.0 13E OREGON INLT 0600 75 N/A 3/ 7 HATTERAS CG 0600 76 78 1015.6 DIAMOND BUOY 0550 74 81 350/ 10/ 21 1016.3 3/ 8 2/ 8 CAPE LOOKOUT 0600 76 90/ 2/ 3 1015.2 BEAUFORT LAB 0600 75 79 1014.6 30 SE NEW RVR IN NOT AVBL 27 SE WRIGHTSVLE 0600 78 200/ 6/ 8 N/A 5 SE WRIGHTSVLE 0508 78 78 170/ 10/ 14 1015.1 225 S CAPE HAT 0550 77 76 190/ 6/ 8 1016.9 3/ 8 3/ 8 41 SE CHARLESTON 0550 74 80 30/ 8/ 12 1014.5 2/ 9 2/ 9 $$

USA.gov is the U.S. government's official web portal to all federal, state and local government web resources and services.